Simultaneous Nadir Overpasses (SNOs) Predictions

Prediction of SNOs over PacNW region [( 10.00, 139.50) to ( 22.70, 165.60)] between AQUA and NPP Satellites:

Table of predicted SNOs over PacNW region for the next 30.0 days since TLE Epoch: 5/22/2020
Index Date (AQUA) Time (AQUA) AQUA Lat,Lon Date (NPP) Time (NPP) NPP Lat,Lon Distance(km) Time Diff (sec)
1 05/24/2020 15:59:26 22.61, 147.49 05/24/2020 16:01:25 23.28, 144.61 304.43 119
2 06/01/2020 15:09:58 22.62, 159.86 06/01/2020 15:10:39 23.22, 157.30 270.81 41
3 06/09/2020 15:59:24 22.59, 147.50 06/09/2020 16:01:22 23.26, 144.63 302.59 118
4 06/17/2020 15:09:54 22.63, 159.87 06/17/2020 15:10:36 23.17, 157.31 269.29 42




NCC Satellite Simultaneous Nadir Overpasses (SNOs) Prediction Service
